Location: ???????
(55.3754°N, 39.3545°E)
Time: 06:28:21
(UTC+00:00)

Cosmos 1092 Rocket - Pass Details

Date: 14 April 2026
Orbit: 952 x 995 km, 83.0° (Epoch: 12 May)

Event Time Altitude Azimuth Distance (km) Brightness Sun altitude
Rises 22:44:29 0° 349° (NNW) 3,666 7.9 -22.7°
Reaches altitude 10° 22:47:03 10° 352° (N) 2,710 7.1 -22.6°
Maximum altitude 22:53:12 66° 75° (ENE) 1,043 4.2 -22.3°
Enters shadow 22:56:57 25° 151° (SSE) 1,844 5.1 -22.0°
